STARLINK-36986, 68207

Orbit data source: Space-Track

STARLINK-36986, 68207 is a payload satellite owned by SpaceX/Seattle (US) in SSO that was launched on Tue, 17 Mar 2026 UTC via an FALCON 9 launch vehicle from the Air Force Western Test Range (AFWTR). Payload-class satellites include a variety of spacecraft equipped with specific instruments for various scientific and technological missions. These include communications satellites like Starlink; space stations such as the ISS; scientific satellites like the Hubble; Earth observation satellites from companies like Planet Labs, Umbra, and HawkEye 360; GPS; miniature CubeSats for education and research; and military/defense satellites.

Loading next visibility...
Identifier
68207, 2026-053A
Orbit
SSO
Country
Flag of USUS
Related business
Manufacturer
SpaceX/Seattle
Mission
Operational spacecraft
Bus & Motor
STARLINK V2MO, Unknown motor
Mass
575 kg wet, ~530 kg dry
Launch date (UTC)
2026-03-17 (3 months ago)
Launch vehicle
FALCON 9
Launch site
Air Force Western Test Range (AFWTR)
Object type
Payload
Rocket body
Debris
Shape & HBR
Unknown shape, 17.7 m
Radar Cross Section
Large (>1 m²)

Expand to show TLE details & history
Last TLE update: 11 hours ago

TLE from 11 hours ago
0 STARLINK-36986
1 68207U 26053A   26171.39517141  .00011595  00000-0  36087-3 0  9995
2 68207  97.2861  46.4073 0001923  90.7032 269.4431 15.33449182 15957
Epoch: 2026-06-20T09:29Z
TLE epoch observation values (Epoch: 2026-06-20T09:29:02.809Z)
Latitude
-0.00005°
Longitude
-4.46481°
Altitude
468.656 km
Speed
7.632 km/s
True Right ascension
03h 05m 37s
True Declination
0° 00' 00"
Sunlit
Object was in daylight at epoch
Visualization orbit readout
Latitude
Unknown
Longitude
Unknown
Altitude
Unknown
Speed
Unknown
Apparent Right ascension
Unknown
Apparent Declination
Unknown
Sunlit
N/A
Visualization observer readout
Local Sidereal Time
07:20:14
Azimuth
Unknown
Elevation
Unknown
Doppler factor
Unknown
Orbital elements
Apogee altitude
463.789 km
Perigee altitude
461.158 km
Semi-major axis
6,840.611 km
Eccentricity
0.00019
Inclination
97.2861°
RAAN
46.4073°
Arg. of periapsis
90.7032°
True anomaly
269.42107°
Mean anomaly
269.4431°
Eccentric anomaly
269.43208°
Mean motion
3.8362 °/min
Orbital period
93.84 mins
BSTAR
0.00036087
Loading maneuver chart data...
Computing Atmospheric mass density...
Loading historical data...
Loading historical data...
Loading historical data...
Loading historical data...
Loading historical data...
Loading historical data...
Loading historical data...

Documentation

Showing up to 5 results
|